Location: Alladorf
(49.9620°N, 11.3790°E)
Time: 21:28:03
(UTC+00:00)

Cosmos 1844 - Pass Details

Date: 29 November 2020
Orbit: 821 x 869 km, 70.9° (Epoch: 25 January)

Event Time Altitude Azimuth Distance (km) Brightness Sun altitude
Rises 06:09:29 0° 233° (SW) 3,346 6.5 -6.3°
Reaches altitude 10° 06:12:03 10° 241° (WSW) 2,417 5.8 -5.9°
Maximum altitude 06:17:13 39° 310° (NW) 1,218 4.1 -5.2°
Drops below altitude 10° 06:22:27 10° 19° (NNE) 2,445 6.0 -4.5°
Sets 06:25:05 0° 27° (NNE) 3,389 6.8 -4.1°
